Theta_e
315 317 318 318 318 319 319 319 319 318 318 319 319 319 318 317 315 313 311 310 311 310 312 311 308 308 307 307 307 306 307 310 312 314 315 313 311 312 313 313 312 314 314 310 310 311 311 312 312 312 317 318 315 316 314 318 324 332 339 331 322 322 322 322 320 318 319 321 315 312 313 316 316 313 311 310 315 317 315 320 319 320 324 322 322 321 322 328
316 319 318 316 317 319 319 318 318 318 318 318 318 318 317 317 315 313 311 310 310 309 309 309 308 308 306 308 307 306 309 312 315 314 314 310 311 313 313 314 313 314 313 310 310 311 312 313 312 314 321 320 314 316 316 314 321 335 333 325 330 332 323 321 322 317 315 316 315 313 312 314 315 314 312 312 317 316 315 317 317 322 324 323 323 322 325 329
318 318 316 316 317 317 318 317 318 318 318 318 317 317 317 317 315 312 311 309 309 308 309 309 308 308 307 307 306 308 311 313 314 314 311 309 312 314 314 316 316 313 312 311 310 310 312 314 310 314 321 319 316 317 319 317 318 327 328 326 333 335 322 317 320 319 315 314 316 314 311 313 313 313 312 314 317 315 319 318 316 321 324 332 327 322 327 329
318 318 315 316 317 316 316 316 317 318 318 317 317 317 317 316 314 312 311 309 308 308 308 308 308 308 307 307 307 310 313 311 311 312 309 309 311 314 315 317 315 312 312 311 312 312 312 312 311 316 319 318 318 317 317 318 316 318 325 328 327 325 320 316 318 320 317 313 315 315 312 312 312 311 312 316 317 316 320 319 317 320 325 338 327 322 327 327
318 317 315 315 316 316 316 316 317 317 317 317 316 316 316 314 313 312 310 309 308 308 307 308 309 308 307 308 308 311 313 309 310 313 311 310 311 315 316 314 313 312 311 312 313 313 311 310 312 319 320 316 317 318 316 314 314 314 316 321 321 318 315 315 316 317 315 311 314 315 313 312 311 311 315 317 317 319 320 317 319 316 325 342 331 323 326 325
318 317 315 314 314 316 316 316 317 317 317 316 315 315 314 313 312 311 309 309 308 307 307 308 308 308 308 308 309 312 312 308 311 315 315 313 314 316 316 312 313 312 312 313 313 312 313 312 313 318 319 316 315 315 315 311 313 318 315 314 317 316 314 314 314 313 312 312 314 315 313 312 312 313 314 316 317 319 315 313 313 310 319 330 327 323 326 326
317 316 315 314 314 316 316 316 316 316 316 315 315 315 314 312 312 311 310 309 308 308 307 307 308 308 308 309 312 313 313 312 313 315 316 315 315 316 314 313 314 313 313 312 312 314 316 314 314 318 320 317 313 313 314 312 314 321 318 313 315 314 313 313 313 312 311 314 314 312 312 313 315 314 310 312 317 316 309 306 305 309 317 323 325 325 325 326
317 316 315 313 315 316 316 316 315 315 316 314 314 314 314 313 311 310 310 309 308 308 307 307 308 308 308 311 314 315 315 316 314 315 315 314 314 313 313 314 314 314 313 312 312 315 315 314 313 315 318 315 313 314 313 312 315 321 318 315 314 312 313 313 314 314 311 313 311 311 313 314 315 311 310 316 319 315 309 310 314 317 321 324 327 328 324 324
317 316 315 313 315 316 315 315 314 315 315 314 314 314 314 313 311 310 309 309 308 307 308 308 308 307 310 313 313 313 315 316 314 314 313 312 313 313 314 314 314 314 313 312 312 312 313 315 314 313 315 313 313 315 314 314 315 318 317 316 314 313 314 313 314 317 315 313 311 312 314 314 312 310 314 320 318 314 312 324 334 330 332 329 327 327 324 323
317 316 315 314 314 316 315 314 314 314 314 314 314 314 314 313 311 310 309 308 307 308 308 308 308 308 311 313 309 309 313 316 315 313 312 312 313 313 314 314 314 314 313 313 312 311 313 314 313 313 314 314 313 313 313 312 313 316 318 317 316 316 315 315 315 316 316 315 313 314 314 314 312 312 317 317 313 312 316 330 334 337 344 332 324 323 323 324
317 316 316 314 313 315 314 313 313 313 313 313 313 313 313 313 312 310 309 307 306 307 307 308 308 308 313 313 308 308 313 317 316 313 312 312 313 314 315 315 314 314 314 313 312 312 313 311 310 311 313 314 313 314 312 311 312 314 318 317 317 317 315 315 316 315 316 313 312 315 314 314 313 314 318 315 311 313 319 329 332 337 341 328 324 323 322 323
317 316 316 314 313 314 314 313 313 313 313 312 313 313 313 313 312 311 308 307 306 307 307 308 308 309 313 311 309 310 313 317 316 313 312 312 314 315 315 316 314 315 315 314 314 313 313 311 311 314 314 312 314 315 313 313 313 314 316 316 316 318 315 313 315 315 316 313 313 316 313 315 316 316 318 313 311 314 317 324 328 332 329 322 323 322 321 321
317 316 316 314 313 313 313 313 312 312 313 312 313 313 312 312 312 311 308 306 306 307 307 308 308 311 312 310 311 311 311 316 316 313 312 312 314 315 315 315 314 315 315 314 314 314 313 312 313 316 314 316 316 312 313 314 314 314 316 318 317 315 314 313 314 315 314 313 314 314 312 319 320 316 315 312 312 314 315 319 322 325 324 320 320 320 321 318
316 316 315 315 313 313 313 312 311 311 312 312 313 312 311 311 312 311 308 307 305 306 308 308 310 312 311 310 311 311 312 315 316 313 312 312 314 315 314 314 315 315 315 315 314 314 315 312 312 314 312 316 314 310 317 319 318 316 313 320 320 313 314 316 315 316 313 312 313 311 311 319 321 316 312 311 314 314 316 321 320 320 320 318 317 318 319 315
316 316 315 315 314 313 312 311 311 311 312 312 312 311 311 310 311 310 308 307 306 307 309 309 312 313 311 312 311 312 314 315 315 313 312 314 314 314 313 313 314 314 314 314 315 315 314 313 315 316 313 313 312 314 321 321 324 323 312 318 319 311 316 320 316 317 315 312 312 311 313 318 318 315 310 310 317 316 317 324 320 319 318 316 316 314 315 312
316 316 315 315 314 313 312 311 310 310 312 312 311 310 310 310 310 309 309 307 307 309 310 312 314 310 308 310 312 314 315 315 315 313 313 314 314 314 313 313 313 313 314 313 314 314 313 315 315 314 314 313 315 319 322 320 326 325 318 321 321 315 317 318 315 315 316 315 314 312 315 319 317 316 311 310 317 317 319 325 323 322 321 318 316 312 312 312
316 315 315 315 313 313 312 311 311 311 312 311 310 309 309 309 309 309 310 309 311 312 311 314 314 308 306 309 312 315 314 314 314 313 315 314 314 314 312 314 313 311 313 312 313 313 312 316 313 312 317 316 316 320 319 317 320 321 321 322 320 318 318 317 317 314 314 315 316 314 315 319 319 318 316 312 312 314 318 324 324 322 321 319 317 314 313 312
316 315 315 315 314 313 312 311 311 312 312 310 309 309 309 309 309 311 313 313 313 311 310 312 310 309 309 309 312 315 313 313 314 314 315 314 314 313 313 314 311 311 313 314 313 314 315 317 316 319 320 315 315 318 316 316 317 317 319 318 316 317 315 318 320 315 313 315 316 317 316 318 319 317 317 313 310 313 317 318 317 317 317 315 314 315 314 313
316 315 315 314 314 313 312 312 312 312 311 309 310 311 311 311 311 313 313 312 311 308 309 310 309 311 312 310 313 314 312 313 314 314 314 314 313 313 313 312 314 316 316 316 315 315 320 320 317 319 318 314 315 316 317 322 322 318 320 321 322 322 318 319 320 313 312 316 317 319 318 320 320 317 317 314 311 312 314 314 314 314 314 313 312 313 312 314
316 315 315 315 314 313 313 312 312 312 310 310 312 311 310 312 313 314 314 314 312 308 310 312 310 312 313 313 315 314 313 313 313 314 314 314 313 313 313 312 317 319 317 321 318 314 320 321 317 318 317 315 315 315 318 321 319 317 320 324 323 322 319 317 316 314 314 316 318 320 320 320 320 317 316 314 312 312 314 315 315 315 314 313 313 312 312 313
316 315 315 315 314 313 313 312 312 312 310 311 312 311 313 313 312 314 313 313 311 306 310 311 309 312 313 313 314 312 313 313 312 314 314 313 313 313 314 314 317 317 316 321 319 313 316 319 319 319 316 314 315 316 318 318 318 318 319 320 319 319 319 315 313 316 315 315 318 320 321 320 320 318 316 314 314 316 316 317 317 317 315 313 312 312 312 313
315 316 315 314 314 313 313 312 312 311 310 311 310 312 317 312 308 311 309 309 308 305 310 310 309 314 313 312 312 311 314 315 314 315 314 313 313 313 315 316 317 318 316 317 318 316 317 319 318 316 314 313 314 316 320 321 322 323 320 318 318 318 319 314 313 317 315 314 320 322 322 321 319 319 317 315 316 315 314 316 317 316 315 313 312 312 312 314
316 315 315 315 314 313 313 311 311 310 310 311 309 310 314 311 309 309 307 309 307 306 312 312 312 319 317 313 313 312 314 315 314 315 314 313 314 314 316 316 317 318 316 316 318 319 320 320 317 313 312 313 314 316 320 320 321 323 320 318 319 318 318 316 314 316 314 313 319 322 319 318 317 317 317 316 313 312 313 315 314 313 314 312 311 313 313 313
316 315 315 315 313 313 312 311 311 310 309 311 310 310 313 312 311 308 307 310 308 307 311 310 314 321 320 314 313 314 314 313 314 314 313 314 315 314 315 316 317 317 316 316 318 318 319 315 310 310 313 316 316 314 318 319 317 318 323 327 325 320 321 319 315 316 315 312 315 317 315 322 328 324 324 322 313 312 314 314 316 314 312 313 313 316 314 311
316 315 315 314 313 313 311 311 310 309 309 310 310 311 313 313 310 308 309 309 307 307 307 307 313 319 316 313 313 315 314 314 315 314 311 314 315 313 313 314 315 316 316 316 316 317 317 310 308 311 312 316 318 315 319 321 317 315 322 331 331 327 325 321 317 319 319 315 312 311 313 331 339 328 325 325 318 317 314 313 317 312 310 318 322 325 325 319
316 315 315 314 313 312 311 310 309 308 310 310 310 311 312 313 310 308 311 311 308 309 307 308 312 313 313 314 315 315 314 314 313 312 312 312 312 312 313 313 313 316 316 314 315 316 314 310 312 315 314 316 317 316 318 320 319 316 317 322 327 328 326 323 320 318 318 313 309 310 315 324 328 321 320 322 319 320 316 316 320 311 310 322 325 328 332 329
316 315 315 314 312 312 310 310 309 309 311 310 309 310 311 313 310 308 311 312 310 311 309 308 308 310 313 313 314 315 315 316 312 311 313 312 311 311 313 314 313 315 314 314 316 315 313 313 314 316 317 317 316 316 316 317 320 316 315 319 326 327 326 325 323 323 322 313 313 320 320 316 318 317 319 318 318 321 321 321 323 315 315 320 320 323 328 330
316 315 315 314 312 312 310 309 309 309 310 310 308 309 312 313 309 308 312 311 309 310 309 307 307 311 313 311 312 314 314 316 315 313 311 310 310 312 315 317 316 318 314 313 316 314 315 319 316 317 320 317 317 318 315 318 323 319 313 317 322 324 328 331 332 331 321 311 318 326 315 312 322 324 322 317 315 320 322 320 320 317 317 318 318 323 327 330
316 315 315 313 311 311 310 310 309 308 309 309 308 310 313 311 307 308 310 308 308 309 307 308 309 312 314 311 312 314 314 315 316 314 311 310 310 311 314 316 317 319 313 315 320 317 315 317 315 317 319 316 318 317 315 322 326 317 310 315 319 322 327 329 330 328 317 313 325 326 313 311 320 327 327 316 313 320 322 321 320 319 317 317 320 326 331 333
316 315 314 312 311 310 309 309 309 308 309 310 310 311 312 311 309 308 307 307 310 309 306 308 310 313 316 313 312 314 315 317 316 315 314 314 312 311 311 311 315 320 319 322 325 318 314 312 312 315 315 315 316 315 315 319 319 313 316 320 319 324 329 329 329 324 315 320 328 321 315 313 313 325 329 316 315 320 319 321 323 321 320 319 324 329 330 331
316 315 313 312 310 309 309 310 309 308 309 311 312 311 311 314 314 308 306 310 314 310 307 308 310 314 316 314 314 314 316 318 315 315 315 314 314 314 312 311 317 322 322 324 322 318 316 315 315 315 314 314 318 318 313 311 314 317 325 325 317 323 327 327 330 323 317 325 323 315 314 313 311 322 326 319 319 317 315 320 321 320 321 320 327 330 327 326
315 314 313 311 311 310 311 312 310 308 310 312 312 310 309 313 312 309 308 310 312 311 310 310 309 314 316 314 314 315 318 319 315 315 318 317 315 314 314 316 320 320 317 320 320 318 320 319 317 314 313 314 322 324 316 313 319 321 322 322 320 322 321 322 330 323 320 323 314 312 315 313 313 317 317 319 319 314 312 316 319 320 320 321 326 329 329 329
315 314 312 310 311 311 311 312 309 308 311 312 311 310 312 313 310 310 311 310 310 311 311 311 311 314 315 314 315 316 316 317 315 315 317 318 316 313 315 318 320 320 319 321 322 319 321 323 318 316 316 314 317 322 319 318 321 318 317 320 322 323 316 318 323 316 316 320 313 312 315 315 317 315 314 318 314 312 312 313 317 318 318 320 321 325 333 334
315 314 312 310 311 310 311 311 308 310 312 311 308 310 314 313 310 310 310 309 312 311 311 313 313 313 314 314 315 316 315 314 314 315 316 316 316 315 316 314 315 323 325 321 321 320 320 322 320 318 318 316 315 319 322 323 320 316 317 316 318 326 325 322 323 319 320 321 315 312 314 322 323 312 312 316 312 313 314 311 313 316 317 320 321 326 335 335
314 312 311 310 310 310 311 310 308 312 312 309 307 310 311 311 311 310 309 310 315 314 311 313 313 313 314 314 314 314 316 317 314 315 317 317 316 315 315 312 313 322 324 317 317 318 317 317 318 316 314 315 317 317 318 320 319 316 314 313 315 323 326 319 315 318 318 317 316 314 317 326 322 312 313 313 310 315 315 311 314 321 320 321 328 334 337 338
313 311 311 310 309 310 310 310 310 312 312 309 308 310 310 310 312 312 310 313 316 313 311 312 314 315 314 313 314 313 315 318 316 315 316 315 315 315 315 313 314 317 317 317 319 318 316 315 315 315 313 314 317 315 315 318 318 316 314 318 319 318 323 318 309 309 312 313 316 316 318 322 316 312 318 315 314 319 318 315 317 320 321 324 335 341 338 340
312 311 311 310 309 310 311 311 312 312 312 310 308 310 309 309 313 313 312 314 314 312 312 312 313 315 314 313 316 315 315 318 316 315 316 315 315 316 315 314 314 314 314 318 319 319 321 318 315 317 317 313 311 314 317 316 315 318 321 321 315 311 319 320 314 317 318 315 318 316 315 319 315 314 320 317 315 319 321 321 316 314 319 326 334 340 340 337
311 310 310 310 309 309 311 312 312 311 312 310 309 311 310 308 311 314 313 312 311 312 314 313 312 314 313 313 315 314 314 317 316 316 316 314 316 316 315 314 314 313 313 314 313 315 321 320 314 314 317 314 313 316 317 314 312 318 321 317 314 317 320 316 314 321 320 315 322 322 314 313 313 317 322 316 315 320 320 320 316 312 316 324 327 333 336 332
311 311 311 310 309 309 311 312 311 312 313 311 309 311 311 309 311 316 314 310 311 313 313 314 315 313 312 312 314 313 313 314 315 316 315 313 315 315 313 314 314 313 312 313 313 312 317 319 313 312 314 315 316 318 318 318 314 313 312 310 316 324 322 316 314 317 317 314 319 323 320 318 317 318 321 315 316 323 319 318 320 314 314 321 325 329 331 328
311 312 312 310 309 309 310 311 312 313 313 311 309 310 311 308 310 314 313 311 313 312 313 318 316 313 313 313 312 313 313 314 314 315 314 312 313 313 312 313 314 313 311 313 315 314 314 314 312 314 314 316 320 320 318 320 316 314 314 312 316 318 316 317 315 314 319 320 319 320 320 326 326 318 318 316 315 319 320 322 328 321 316 318 319 323 325 323
311 313 313 310 308 309 310 312 314 314 314 312 309 310 310 308 309 312 312 313 314 312 316 320 316 314 317 314 312 313 313 314 314 314 314 312 312 312 312 312 314 313 311 312 314 316 315 312 315 319 317 318 320 316 314 317 317 315 316 315 316 317 316 317 315 313 315 316 319 319 315 323 330 318 316 319 316 316 316 318 324 326 320 318 319 320 321 321
312 315 313 310 308 309 311 314 314 314 315 314 310 311 313 313 311 311 312 314 315 315 316 317 315 316 316 312 312 314 314 315 314 314 315 313 312 313 311 312 313 311 311 312 313 316 318 319 323 323 320 319 315 310 309 314 315 315 316 316 316 316 316 319 319 317 313 309 313 317 315 320 328 318 316 321 318 317 316 314 319 324 321 320 323 322 319 320
311 313 312 310 309 310 312 315 314 314 315 313 311 311 314 316 314 312 312 314 315 315 315 316 314 313 314 313 313 313 313 314 313 313 315 313 312 314 314 313 313 312 312 313 313 313 316 319 321 321 321 321 316 312 311 312 314 316 317 317 317 317 318 324 325 320 317 313 313 316 315 320 328 322 318 319 319 321 321 319 320 321 319 319 321 321 319 317
308 310 310 310 310 310 313 314 314 314 313 311 311 312 312 314 315 313 311 312 315 317 316 315 314 312 316 318 314 312 313 314 313 313 315 315 312 314 317 314 313 313 312 312 313 312 313 316 318 318 321 322 319 318 318 316 316 319 320 316 316 319 319 319 318 315 316 319 318 318 317 318 324 323 318 319 321 322 324 324 323 321 318 319 320 319 318 316
307 308 309 310 310 311 313 313 313 313 313 311 312 314 312 312 313 313 314 315 318 320 317 314 315 317 320 317 311 312 313 314 316 314 313 316 315 314 315 315 313 312 312 314 315 312 313 317 317 316 317 316 317 318 318 320 317 317 320 317 315 317 317 315 317 316 316 319 317 318 318 313 314 318 315 318 321 318 317 320 321 320 320 319 321 323 321 319
306 307 309 310 311 312 312 312 313 314 313 312 312 314 313 312 312 312 315 316 316 318 319 316 315 317 318 314 311 313 313 313 317 315 313 316 318 315 313 314 313 312 316 320 316 314 319 319 314 313 314 313 312 315 318 322 321 318 319 318 315 315 315 317 322 319 317 318 315 316 316 313 314 317 316 319 322 320 318 317 318 320 321 319 319 321 320 318
305 307 308 309 311 313 312 311 313 314 312 312 312 312 312 313 312 312 313 314 314 316 319 317 315 314 315 314 313 314 313 312 314 316 314 313 315 314 311 311 311 312 317 318 314 316 322 318 313 314 314 312 312 318 321 321 320 319 318 318 316 315 315 317 319 316 315 317 315 313 314 313 314 317 320 321 322 323 323 322 321 321 321 319 317 316 319 319
306 307 307 308 309 311 312 311 311 312 312 312 312 312 312 313 313 312 313 313 313 315 316 316 316 317 315 314 314 315 314 313 313 316 315 314 315 315 312 311 311 313 316 313 311 316 318 314 314 315 313 312 314 320 323 320 318 319 318 317 316 315 315 316 315 315 315 315 313 313 315 314 312 315 320 321 321 322 322 320 318 317 318 320 318 318 324 325
306 307 307 307 307 307 309 310 309 311 312 311 312 313 312 312 312 313 314 314 314 316 316 316 319 320 317 315 315 315 315 314 314 315 316 315 316 317 316 314 313 314 314 312 311 313 315 316 317 313 312 313 313 317 321 319 318 318 317 316 316 314 315 315 315 314 314 314 313 314 317 316 311 313 317 317 317 317 314 314 315 316 318 322 323 325 328 327
305 306 307 308 306 304 307 309 309 311 311 310 311 312 311 312 312 312 315 315 314 316 315 315 318 319 316 315 315 315 315 314 314 315 316 315 315 317 317 318 318 315 312 312 311 309 311 319 318 312 312 314 312 315 319 319 319 318 316 315 315 314 314 314 315 315 314 314 313 313 316 316 312 313 316 315 314 314 312 312 314 314 314 318 322 325 328 327
301 302 304 307 308 305 305 307 309 310 311 309 310 311 311 311 311 311 313 312 312 315 316 315 317 318 315 315 316 317 316 315 315 316 315 314 315 315 315 317 319 317 313 313 314 312 312 317 318 314 314 315 314 315 316 314 313 313 315 316 315 315 315 314 314 315 314 315 315 314 315 314 311 314 316 315 315 315 314 314 313 313 313 315 316 319 324 326
300 301 302 306 308 306 305 306 307 309 311 310 310 310 310 311 311 311 312 312 313 316 317 316 317 318 318 317 316 317 319 319 320 319 316 318 319 318 318 318 315 315 315 314 315 316 315 316 319 317 316 316 315 314 313 312 312 312 314 315 315 314 314 314 314 314 314 315 315 315 314 312 313 316 316 315 315 315 314 313 313 314 314 314 314 315 320 321
Wind_Speed
25 25 23 20 19 18 17 17 16 16 15 14 13 12 12 11 13 15 16 18 18 17 18 19 16 14 13 11 10 11 9 7 10 9 9 12 13 13 12 10 10 8 5 6 6 7 4 2 2 2 3 3 3 2 2 3 3 4 4 4 2 3 4 6 8 7 5 3 5 5 6 8 5 3 2 1 4 3 1 3 2 2 2 3 5 6 5 19
25 24 21 21 21 19 17 16 15 15 15 14 14 12 11 10 12 14 15 17 20 19 17 15 15 14 12 11 12 11 7 7 8 10 16 18 13 11 12 11 10 9 6 6 7 8 6 2 3 4 4 2 2 2 2 2 3 4 3 4 3 6 5 6 8 7 3 2 5 5 4 5 6 5 3 2 2 3 2 3 4 4 4 2 5 2 13 21
25 23 22 22 21 18 17 16 15 15 14 14 14 12 11 11 12 14 15 17 18 18 16 14 13 11 10 11 11 9 5 4 5 10 19 19 15 12 11 11 10 9 7 6 7 7 7 7 7 5 5 3 1 2 2 2 1 2 4 3 5 6 4 4 7 7 4 3 7 5 3 2 3 3 2 4 2 0 4 5 1 4 8 4 2 8 17 18
24 23 24 22 20 19 18 17 16 15 14 14 14 12 13 13 12 14 15 16 16 16 15 13 11 10 9 10 9 7 3 2 4 9 15 17 17 14 11 11 10 9 8 7 7 6 8 9 7 5 4 2 3 3 2 1 0 2 4 4 5 4 2 3 6 6 4 4 7 5 4 1 4 2 2 6 5 2 6 7 8 9 9 6 3 9 15 16
25 24 26 23 19 19 19 18 17 15 14 14 13 11 12 13 13 14 14 15 16 16 15 13 11 9 9 9 8 7 3 1 4 7 10 14 17 16 12 11 9 9 8 9 9 9 9 8 6 5 4 1 2 3 1 2 1 2 1 4 5 4 3 1 3 4 4 4 6 7 6 4 2 2 3 8 7 6 7 7 10 10 8 9 8 12 13 14
26 24 25 24 20 19 19 18 17 15 14 13 13 11 11 12 13 14 14 15 15 15 15 13 11 9 9 8 7 6 4 1 2 3 10 15 17 16 12 11 9 9 9 10 10 9 6 5 5 3 3 2 2 2 2 3 2 2 1 1 3 3 2 0 1 2 4 6 7 7 5 3 4 1 2 7 8 7 5 4 6 6 7 9 11 14 12 12
27 24 23 23 21 20 19 19 18 16 14 13 12 11 9 11 13 13 14 14 14 14 13 12 11 9 8 6 6 3 3 4 3 3 10 15 17 15 12 11 10 10 11 11 9 7 5 5 4 4 4 3 2 2 2 2 4 4 2 1 2 2 2 1 0 2 4 6 6 5 4 3 5 3 1 4 10 7 3 1 2 6 11 11 11 12 12 14
27 24 22 23 22 20 20 19 17 17 14 13 12 10 8 9 12 13 14 14 13 13 12 12 11 9 8 7 6 2 3 5 1 6 11 12 14 13 12 10 10 11 11 11 9 7 6 6 5 4 4 1 4 3 2 2 5 4 3 2 2 1 2 2 3 4 3 3 1 5 5 2 5 4 1 7 11 7 3 2 4 8 9 9 10 11 11 12
26 24 22 23 23 21 21 19 17 18 15 13 12 10 8 7 11 12 13 13 12 12 11 12 11 9 9 7 5 2 5 5 3 8 10 10 11 11 11 9 10 11 10 9 8 9 6 5 5 4 4 2 4 4 2 3 1 2 3 3 4 1 4 3 4 5 2 1 2 5 3 3 3 1 3 9 8 5 0 5 5 8 7 7 8 10 11 10
27 25 22 22 23 22 21 19 18 17 15 13 12 10 8 7 9 11 12 12 12 11 11 11 11 10 10 6 4 3 4 3 6 9 9 9 9 10 10 9 10 10 9 7 7 9 6 6 7 5 5 3 3 3 1 2 2 3 6 5 5 2 4 3 4 4 2 2 2 5 3 3 2 2 4 5 4 3 3 5 3 7 7 8 7 8 11 11
27 25 22 21 24 23 20 20 18 17 15 13 11 10 8 6 8 9 10 11 12 11 10 11 11 10 9 5 4 4 3 2 8 10 9 9 7 9 9 8 9 10 9 6 7 10 5 7 10 6 2 3 3 2 1 2 3 4 6 5 7 5 3 5 5 4 3 2 2 5 3 4 2 1 6 4 5 1 6 4 3 6 6 6 7 7 9 12
27 25 22 21 24 24 22 21 19 16 15 12 11 11 8 6 7 8 10 11 12 11 11 11 11 11 8 3 3 6 4 3 7 9 8 8 7 8 7 6 7 8 8 5 7 10 5 8 12 6 1 4 5 2 2 3 4 3 4 5 6 7 4 4 3 3 2 2 1 3 1 5 3 6 7 2 5 3 5 4 4 5 5 4 6 5 7 11
27 25 23 21 23 24 23 23 19 16 14 12 12 11 9 6 6 7 9 11 12 11 11 11 11 11 7 1 5 11 9 5 6 8 7 7 6 6 6 6 6 6 7 5 7 9 7 10 11 6 2 6 3 2 4 4 3 2 4 5 2 6 4 3 2 3 2 2 3 1 1 6 8 10 7 3 5 4 2 5 6 6 5 4 5 5 7 10
27 25 24 22 21 22 23 21 18 16 14 13 13 11 9 6 6 8 9 11 12 11 11 11 11 10 4 2 5 8 10 7 6 7 6 6 6 7 5 5 6 6 7 5 7 8 8 10 9 6 3 4 3 2 4 5 3 2 3 3 2 2 4 5 3 0 3 0 2 4 2 7 8 9 6 5 4 0 4 6 6 6 5 5 5 5 7 9
26 25 24 22 20 21 20 18 16 16 14 12 12 10 9 7 7 8 10 11 11 12 11 11 12 8 2 3 4 4 7 6 7 8 6 7 7 6 5 6 6 6 7 6 8 9 9 11 9 6 1 2 4 6 4 4 4 3 2 1 2 3 4 7 3 2 4 1 3 6 3 7 7 8 6 5 3 3 6 7 6 6 6 6 5 6 7 8
26 26 24 22 21 20 19 17 15 15 14 12 10 9 8 7 8 9 10 11 11 12 11 9 10 7 2 2 1 1 4 5 7 9 6 8 7 6 9 11 9 8 9 9 12 11 8 8 5 2 3 3 4 6 5 4 4 4 3 2 2 3 3 4 1 1 1 1 2 2 3 4 3 6 5 4 4 3 3 7 7 6 7 6 5 6 6 7
26 26 24 22 21 19 18 17 15 14 14 12 10 9 7 7 9 9 10 11 11 10 9 8 8 4 0 1 0 1 3 4 8 9 7 7 7 10 12 9 7 8 10 10 10 7 5 5 2 0 3 3 3 6 5 1 2 2 2 2 2 3 3 2 2 3 4 2 1 2 2 6 6 6 8 4 2 2 4 7 8 6 7 6 6 6 6 7
27 26 24 23 21 20 18 16 15 14 13 12 10 10 9 9 10 10 12 15 13 9 6 4 6 3 3 2 2 2 1 5 9 9 8 7 7 10 9 5 5 8 8 5 3 3 3 4 2 2 3 3 2 5 5 4 5 6 3 3 2 2 3 3 3 2 3 2 2 1 3 10 11 10 10 6 3 2 7 7 7 8 8 7 6 6 7 7
28 26 25 23 22 20 18 16 15 13 13 13 15 17 15 13 11 8 9 10 8 5 2 3 5 4 4 3 1 1 3 7 9 8 8 7 8 8 6 6 6 7 5 3 1 1 2 3 4 4 3 4 6 6 7 8 8 9 6 5 5 4 4 5 4 4 0 3 3 5 5 8 11 11 11 7 1 2 8 6 7 8 8 8 7 7 7 7
28 27 26 24 23 21 18 16 14 13 14 19 23 19 12 8 6 3 0 0 2 3 2 4 6 3 1 1 1 5 6 6 4 4 7 7 8 8 5 4 5 5 4 4 2 1 3 4 3 5 7 8 8 5 5 5 6 8 6 4 4 4 2 3 3 5 1 4 3 3 4 8 11 12 12 10 5 5 9 8 9 10 8 9 8 8 8 7
30 28 26 24 23 21 19 17 14 12 14 23 24 12 5 6 4 3 2 3 4 4 1 1 3 3 1 1 4 5 4 3 2 2 6 6 7 8 1 3 5 3 0 3 3 2 4 5 7 6 7 7 6 6 7 6 7 6 6 5 2 2 2 2 1 4 3 2 3 3 4 9 11 12 12 9 8 8 9 9 11 11 10 9 8 9 8 6
31 29 27 25 23 21 19 16 14 13 16 22 16 3 3 5 5 9 8 1 4 3 2 0 1 2 2 2 5 3 3 3 2 1 3 4 4 5 1 3 6 4 1 2 4 2 2 5 7 6 5 8 7 5 8 7 7 5 4 5 3 2 2 2 2 5 5 1 3 4 5 9 11 11 12 10 10 10 8 8 9 9 10 10 8 7 6 7
32 30 28 25 24 22 19 16 14 13 18 20 11 3 5 6 9 13 7 4 2 0 2 2 3 2 1 1 5 3 3 3 4 3 3 4 2 3 4 5 5 4 2 4 5 6 4 5 5 5 8 10 6 4 8 8 5 4 4 5 3 2 2 1 2 4 4 2 1 2 3 8 8 7 10 11 9 8 6 7 9 8 10 11 8 6 7 9
33 31 29 26 25 23 19 17 14 13 19 19 12 8 8 9 13 11 4 3 2 1 1 1 3 4 3 3 6 6 3 2 5 4 4 6 4 2 4 5 5 5 4 5 7 6 4 4 1 7 7 8 7 3 6 7 3 1 3 5 4 4 4 3 2 1 3 4 3 2 4 6 5 5 8 8 5 6 5 6 9 8 8 9 7 8 9 10
35 33 30 28 26 23 20 17 13 13 17 14 13 12 9 10 12 8 4 3 1 1 2 2 1 4 5 4 5 6 3 1 2 3 4 6 6 3 2 2 3 4 4 5 7 5 4 3 3 8 5 6 8 4 5 7 4 1 4 6 7 7 6 3 2 4 4 4 4 4 3 6 5 5 8 6 7 8 5 5 9 7 5 6 6 8 9 8
36 34 32 30 27 26 20 12 11 16 13 10 17 16 9 10 11 6 4 4 2 2 1 3 2 5 8 4 3 4 3 1 2 1 3 4 3 3 3 1 2 3 5 5 4 2 1 2 4 7 6 6 7 5 6 6 6 2 4 5 6 8 8 7 5 5 2 2 2 3 2 5 7 6 8 6 8 11 9 8 10 4 3 6 6 7 7 6
37 35 35 32 30 28 16 7 13 17 8 8 19 19 10 10 9 3 5 5 3 2 4 1 1 6 9 3 4 6 3 3 1 3 3 3 1 4 3 3 1 2 3 4 2 1 2 3 4 5 6 6 6 5 6 7 8 3 2 5 8 9 8 7 6 4 2 3 3 4 3 1 6 6 7 5 7 11 10 11 11 5 4 7 7 8 8 6
38 37 36 33 31 27 15 12 19 16 4 5 18 18 11 11 8 3 5 2 3 2 4 2 0 5 4 1 3 5 2 2 4 1 2 4 1 3 3 5 5 4 1 4 4 3 2 5 5 5 5 4 4 4 5 8 6 3 2 6 7 8 8 5 6 4 0 1 3 4 2 1 6 7 5 5 4 8 10 10 10 9 9 8 7 8 8 7
39 38 37 34 31 24 15 13 18 18 9 6 17 20 14 12 6 4 4 2 1 2 1 2 3 3 2 3 2 3 1 1 2 3 2 5 2 4 3 4 6 7 3 3 6 2 2 3 6 5 4 4 2 1 1 4 3 3 5 7 7 7 6 5 5 4 2 1 4 5 0 1 5 7 4 3 2 7 9 9 8 8 9 8 7 8 6 6
40 41 39 35 30 21 15 11 14 19 12 8 18 21 14 9 5 4 3 4 2 1 0 2 3 2 6 7 1 2 2 2 1 1 3 2 4 6 2 2 6 7 4 6 4 1 2 1 1 3 2 4 4 3 3 2 5 8 6 7 7 6 5 4 3 4 4 2 6 5 2 0 3 7 4 3 4 6 4 6 7 7 8 7 6 6 5 5
38 40 41 38 30 22 15 7 13 19 12 11 20 18 9 4 3 5 6 4 3 2 1 1 2 4 11 13 5 0 3 2 0 4 3 1 3 4 2 2 4 5 3 4 3 4 4 3 0 0 2 4 6 5 5 4 5 6 4 5 5 4 5 4 5 4 2 4 6 4 2 2 3 6 5 4 6 6 5 4 6 7 8 7 6 5 5 5
39 38 39 36 29 25 16 8 16 20 14 17 20 10 5 4 1 5 4 2 3 3 4 5 4 6 11 11 6 4 4 2 1 5 5 3 3 3 3 4 4 3 1 3 1 3 2 1 1 1 1 4 5 5 5 5 4 5 5 6 5 2 3 2 3 1 3 5 3 2 1 2 6 8 8 10 9 6 7 7 7 7 8 7 6 6 5 5
41 38 37 31 26 25 17 11 18 21 18 21 15 4 4 5 6 9 5 2 3 2 4 5 2 6 10 8 5 4 3 1 3 3 2 4 4 4 2 3 6 5 3 5 4 2 1 4 2 1 1 2 4 5 3 2 1 4 6 5 5 3 2 2 4 2 3 4 2 3 2 3 5 5 9 14 9 4 6 7 7 7 7 7 7 6 6 5
41 39 35 30 25 23 16 12 20 23 20 17 9 4 5 6 8 9 7 4 2 1 3 4 5 7 8 6 5 6 4 0 3 4 2 4 5 6 5 4 4 5 4 4 3 5 4 4 3 3 2 1 3 4 5 6 3 2 3 5 5 5 4 4 4 3 4 3 3 3 2 3 3 2 7 11 7 4 5 6 5 6 8 7 7 7 6 6
38 37 32 26 24 21 15 14 23 25 18 10 6 7 9 9 7 7 8 5 2 1 3 3 8 9 5 1 1 5 4 2 3 4 3 6 6 7 6 6 5 4 6 6 3 3 4 4 4 2 2 2 3 2 3 6 3 2 2 5 3 4 5 4 3 5 3 1 2 2 3 4 3 6 8 6 6 7 6 4 4 6 7 5 6 6 5 5
35 32 26 23 23 21 16 16 23 23 14 7 7 8 9 10 7 5 7 6 4 6 7 4 4 6 5 1 1 5 1 3 5 4 3 4 4 6 7 5 6 5 5 6 3 2 3 2 4 3 2 2 2 2 1 2 3 2 2 3 5 4 7 6 1 1 3 1 3 1 4 5 4 7 9 6 7 8 5 3 4 4 4 3 5 6 5 5
30 24 18 17 22 22 17 17 21 19 9 5 9 10 10 9 5 4 5 6 6 8 10 5 2 4 6 3 4 7 3 3 4 3 4 3 2 6 7 4 5 9 7 4 2 3 5 1 3 2 2 1 1 2 4 3 3 5 3 5 4 3 5 5 2 3 4 2 4 1 4 5 2 4 7 6 7 10 8 5 3 0 1 3 6 6 6 6
23 16 10 13 22 23 19 17 19 13 4 4 10 10 8 7 3 4 6 7 8 7 7 6 4 4 6 6 6 7 6 4 5 4 4 4 4 6 9 5 4 8 7 3 1 2 5 3 3 2 1 3 3 3 3 3 3 4 4 3 4 3 2 2 2 1 1 2 4 4 4 4 4 5 5 3 7 10 10 8 3 2 3 5 6 7 7 6
18 9 4 14 23 25 22 18 13 9 3 6 11 10 5 4 2 3 8 8 7 6 6 5 2 2 5 7 6 7 7 7 8 5 4 5 5 5 9 6 2 7 8 5 4 3 4 4 2 2 1 2 3 1 4 1 3 3 2 2 3 3 4 2 3 4 3 3 3 4 4 3 6 6 6 9 10 10 10 9 5 4 7 7 7 7 8 6
11 4 3 17 27 28 26 15 8 6 5 9 12 7 2 3 1 2 6 7 5 3 5 5 4 4 4 4 4 6 6 6 9 7 4 6 5 5 7 7 5 7 6 5 4 3 2 3 4 2 3 1 1 3 6 6 3 2 3 4 2 1 2 2 0 2 4 4 3 2 3 6 6 4 8 10 9 8 9 7 6 4 5 7 7 7 6 6
6 2 3 20 30 31 24 10 4 7 6 9 10 3 1 2 3 3 3 3 4 2 4 6 6 5 5 4 3 5 4 4 7 6 3 6 7 5 7 8 9 9 6 4 3 4 3 3 4 2 0 3 3 3 3 5 5 6 5 6 6 4 4 3 2 1 2 3 4 3 3 8 6 4 7 8 6 7 7 6 6 6 5 6 6 7 7 6
3 1 7 25 36 30 17 5 4 6 3 7 6 2 1 1 4 6 4 2 3 2 3 4 4 4 5 5 5 6 7 5 6 6 4 8 9 7 5 6 10 12 10 5 3 3 3 4 5 3 3 4 3 2 2 3 1 3 4 4 6 4 5 6 6 4 2 1 2 4 2 8 6 4 6 6 5 5 5 6 6 6 5 4 3 3 4 5
0 0 10 31 38 26 11 5 6 6 4 4 1 2 1 1 3 5 4 2 2 2 2 2 3 3 3 4 5 7 8 5 6 8 5 5 7 5 5 8 11 12 10 5 3 3 2 4 4 0 3 3 3 3 2 2 1 2 4 4 5 3 3 6 5 4 5 3 3 3 2 8 6 3 4 5 5 5 5 5 6 5 3 3 3 2 2 1
0 2 5 25 36 23 9 6 9 10 7 1 2 1 1 1 2 4 5 4 2 3 4 3 3 3 3 4 6 8 10 5 4 8 4 2 4 3 6 11 11 11 8 5 6 6 4 3 5 3 1 3 3 3 3 2 2 4 3 3 5 4 6 5 2 4 2 5 7 5 5 7 5 3 2 3 3 4 6 5 5 5 4 5 6 5 4 3
1 2 2 13 24 16 5 4 7 9 6 4 3 4 2 1 1 1 4 4 1 3 5 3 2 4 4 4 4 5 9 6 3 6 4 2 3 1 4 11 11 9 6 2 6 7 5 4 5 6 6 5 6 6 5 4 3 2 1 4 6 7 9 6 3 4 2 5 7 6 7 6 4 5 4 4 2 1 4 5 5 5 6 4 5 6 5 4
1 0 1 3 8 7 4 0 2 4 5 6 5 4 4 3 0 1 2 3 1 2 3 1 3 5 4 5 6 5 9 6 2 4 6 6 3 2 3 9 10 8 5 7 10 8 3 2 6 9 11 12 12 9 4 6 6 5 5 7 8 9 10 7 4 4 5 3 4 8 11 8 6 6 6 6 5 5 5 5 6 6 7 6 4 4 4 4
2 1 2 2 3 6 5 1 2 3 4 7 6 4 7 6 1 0 1 1 2 2 3 2 3 5 6 8 7 5 9 8 2 4 7 7 2 2 1 3 6 6 5 8 9 6 5 4 8 10 13 14 11 7 4 7 9 11 10 10 10 11 11 9 8 10 7 5 5 14 13 12 11 7 8 9 7 6 7 8 8 6 7 6 3 3 5 6
1 1 2 1 1 4 5 5 5 3 3 7 4 3 8 8 5 4 1 1 1 1 1 1 2 6 11 12 8 5 7 7 4 4 5 4 3 1 3 2 3 3 3 4 4 4 5 7 9 9 13 14 7 5 6 7 8 10 12 13 14 14 14 14 15 16 9 7 15 15 11 15 15 9 10 11 9 9 9 8 6 4 5 5 3 5 6 7
1 0 1 1 0 1 2 4 7 5 3 5 3 2 8 10 9 6 2 3 0 2 2 4 5 7 10 11 10 7 7 8 7 7 5 5 4 3 3 1 2 1 3 4 2 2 3 5 6 8 10 13 7 6 6 7 7 7 10 14 15 16 18 18 18 19 15 15 21 12 9 14 15 10 12 12 9 9 4 1 3 5 6 5 5 6 6 6
1 1 0 2 1 1 1 3 7 6 3 3 4 3 6 10 12 6 1 4 5 2 3 6 7 6 6 8 8 8 10 13 12 11 8 6 3 3 4 4 3 2 3 4 2 1 3 3 2 6 5 10 6 6 6 7 7 7 7 9 11 13 16 17 18 19 16 17 19 10 4 13 9 8 10 10 7 6 4 4 7 8 8 7 7 8 7 7
0 2 1 1 2 3 3 2 4 6 5 4 6 5 6 9 11 8 3 2 4 5 6 7 5 4 4 4 7 8 9 9 9 9 11 10 8 6 5 5 7 7 5 5 4 3 4 2 2 5 3 7 5 9 8 4 3 2 2 6 11 13 14 16 17 15 13 13 14 9 9 15 6 9 8 10 8 9 10 11 11 9 9 10 10 10 8 8
1 2 3 0 1 3 4 3 3 5 5 6 7 6 6 6 7 8 5 2 2 5 6 7 7 4 3 5 9 9 7 6 5 5 6 5 4 4 3 4 9 10 9 7 4 3 6 5 2 4 5 6 4 7 7 6 4 4 6 11 17 17 16 15 12 12 12 11 10 10 13 16 7 8 9 10 8 10 12 11 10 11 12 11 9 9 9 9
Wind_Direction
192 189 186 186 189 190 190 191 193 193 190 189 188 188 191 195 200 203 202 200 204 205 206 215 220 225 228 226 232 246 252 253 253 240 226 244 249 243 251 245 221 220 212 194 184 166 125 81 165 128 108 69 13 326 12 12 54 62 79 99 142 172 199 184 179 192 170 212 215 205 178 161 201 213 179 35 37 54 48 322 325 324 267 227 281 296 174 161
189 183 183 187 189 188 187 191 192 190 188 186 188 190 188 189 197 200 197 195 198 204 205 208 211 216 221 214 225 248 259 255 255 246 240 243 249 244 240 237 220 217 207 190 189 167 138 146 165 96 59 53 356 352 46 357 59 86 107 111 198 196 203 193 174 184 172 175 178 178 168 171 198 173 147 179 313 17 133 279 347 329 265 247 309 211 160 161
187 180 183 185 186 186 186 190 188 187 185 185 189 187 187 192 195 198 198 196 196 200 203 207 209 210 210 202 216 244 255 261 266 254 248 241 238 240 229 225 219 211 204 189 182 169 163 164 148 110 58 66 358 12 74 12 41 137 116 116 230 208 211 215 178 186 202 152 146 165 153 174 230 166 159 178 165 68 195 227 206 260 247 230 298 157 158 164
184 178 181 180 182 186 185 186 185 185 183 187 189 184 195 197 193 198 199 199 200 200 202 208 211 207 204 198 205 220 215 298 272 237 245 237 226 229 221 215 208 196 195 176 156 147 149 139 120 92 73 67 337 10 94 340 244 141 118 164 219 187 166 207 192 200 201 158 143 146 127 182 240 176 161 149 135 265 242 224 201 213 214 185 190 166 164 168
181 179 183 183 183 184 183 182 182 181 181 188 188 187 200 198 194 200 199 201 201 199 202 206 209 205 200 197 197 201 170 5 267 215 221 217 209 215 213 205 197 189 182 163 144 127 127 122 93 66 72 95 357 40 120 308 66 97 107 183 183 157 121 182 206 198 162 129 120 130 150 188 179 133 158 153 165 232 233 223 213 210 187 167 170 168 169 173
182 182 186 188 185 182 181 179 179 179 181 186 187 193 200 197 198 200 200 202 201 200 201 204 206 200 196 196 189 187 171 199 308 186 190 188 190 202 202 196 190 183 176 158 142 125 112 87 86 101 74 76 109 134 202 310 35 114 264 204 188 188 113 75 263 206 150 131 145 159 173 154 121 190 190 172 205 220 209 229 228 198 159 155 155 162 171 179
183 183 185 187 183 180 179 177 180 180 182 186 187 194 196 196 199 199 200 199 198 198 197 202 202 197 192 176 159 163 210 259 314 159 176 173 181 193 190 190 182 178 175 155 138 125 108 92 121 146 93 86 155 161 179 350 34 96 158 225 195 186 88 338 301 171 165 157 185 170 130 135 165 189 110 217 237 231 211 274 229 156 141 146 152 169 183 186
182 182 182 184 181 180 179 177 180 179 181 186 184 189 189 194 198 198 199 196 194 191 193 199 196 191 182 153 135 150 241 259 275 166 176 173 180 184 182 185 176 176 172 162 156 142 129 125 153 151 97 160 164 129 138 81 34 81 158 191 135 113 353 354 69 89 139 159 177 121 117 201 205 164 127 243 250 258 239 87 104 127 132 153 165 182 191 194
182 180 180 181 180 180 181 179 179 178 181 182 179 185 188 192 198 198 198 194 188 184 188 193 190 185 172 146 122 170 229 246 218 176 177 180 183 179 180 180 175 176 163 167 171 151 155 160 176 179 147 179 135 124 150 124 232 158 138 145 112 40 334 23 76 55 75 98 58 132 120 321 258 207 268 249 255 283 71 94 110 128 141 177 178 188 193 199
183 182 181 180 181 182 183 181 179 177 181 182 178 181 188 193 196 197 196 191 182 180 185 186 186 176 166 146 124 195 244 249 205 186 181 188 187 178 178 177 175 175 159 161 166 156 170 180 173 161 136 135 112 117 167 146 186 134 112 103 79 37 336 43 89 28 15 51 30 162 174 309 304 312 265 258 300 307 119 105 127 145 166 187 185 198 201 209
185 184 182 180 182 184 184 183 179 176 181 182 176 179 188 193 195 195 191 186 178 175 181 182 181 171 161 147 145 200 255 238 199 187 185 192 191 183 179 178 175 174 163 150 173 177 182 178 155 125 118 164 122 68 278 156 109 114 121 88 15 7 29 40 75 16 0 79 46 137 158 310 357 291 234 243 343 331 155 152 170 173 196 194 190 203 206 222
186 185 183 180 182 185 185 185 179 176 181 178 176 185 188 186 190 189 181 180 176 174 177 177 177 167 150 130 191 218 255 264 205 191 191 193 187 182 174 175 175 179 176 160 187 188 188 177 143 106 266 156 130 104 161 118 93 113 106 89 352 4 31 14 43 332 1 104 310 116 66 305 241 232 241 272 358 44 139 192 230 214 223 208 206 214 213 227
186 185 183 180 182 186 187 189 184 175 176 176 183 194 197 189 182 176 173 176 174 171 172 172 172 163 145 152 226 229 248 269 221 197 194 194 183 172 166 172 176 188 193 189 188 180 179 175 140 111 128 113 128 186 125 71 75 134 66 92 45 17 355 328 13 325 73 106 304 129 212 277 249 248 260 322 346 28 119 232 248 246 243 230 222 226 232 232
186 185 183 180 182 186 189 194 190 177 172 180 190 199 202 189 174 170 165 170 172 167 166 165 163 152 141 238 234 233 241 248 223 202 196 195 174 151 150 168 182 193 192 189 173 162 166 161 124 98 105 94 137 127 59 25 31 100 68 62 75 110 260 304 339 38 127 162 345 111 194 271 264 266 275 309 328 347 256 258 255 261 261 249 234 232 245 241
185 185 183 182 182 185 189 191 185 177 173 178 189 197 200 186 172 166 159 164 166 162 157 154 157 145 101 263 250 234 227 224 205 200 198 188 168 144 143 147 149 156 160 160 149 142 149 143 106 89 95 11 100 94 46 19 20 43 105 327 356 159 250 311 327 155 149 233 35 105 211 273 267 269 283 324 21 162 237 269 277 272 267 259 246 237 245 253
184 184 184 183 181 182 186 184 177 173 170 173 180 183 187 179 165 156 156 159 154 152 148 148 158 145 108 229 242 205 208 200 188 191 187 180 176 148 137 129 117 121 128 126 125 121 115 107 80 92 117 61 95 102 70 38 3 359 102 179 233 165 242 311 333 337 63 168 15 90 219 270 274 270 289 342 57 103 245 276 283 272 268 262 252 247 246 260
183 183 184 182 179 180 182 180 174 168 165 169 167 158 163 166 157 149 145 139 134 133 130 147 156 138 70 199 177 231 202 181 176 177 172 176 176 149 136 120 100 109 112 110 115 103 63 59 53 307 69 71 118 105 90 39 264 281 56 120 210 177 188 277 268 325 23 97 247 17 234 249 268 279 287 295 76 28 298 280 284 278 273 265 255 258 251 254
183 182 182 181 178 178 179 177 171 165 160 159 147 133 135 134 129 130 132 124 114 100 91 133 137 131 248 226 193 225 189 160 162 160 161 161 161 153 139 114 112 108 95 86 86 67 30 31 67 113 50 59 134 120 146 202 194 187 174 138 183 201 200 239 240 266 21 76 215 310 267 263 275 282 286 274 177 273 279 274 286 282 275 270 260 254 249 251
184 183 181 180 179 179 178 175 170 163 154 143 132 122 113 105 99 108 130 124 113 104 124 178 146 148 220 236 216 133 115 138 148 149 146 143 149 144 107 96 110 98 98 103 63 61 75 58 72 131 148 169 183 173 178 194 173 169 174 143 154 180 225 237 244 270 248 118 233 246 250 274 283 282 287 284 176 249 278 284 285 275 271 269 262 253 248 247
185 183 180 179 179 181 179 175 171 165 155 143 135 123 111 110 95 84 170 122 169 162 148 183 171 137 117 291 94 117 117 119 126 137 141 147 146 128 72 52 75 67 109 147 142 102 97 124 179 186 185 189 187 163 140 152 140 138 131 112 150 171 228 244 258 304 329 141 253 267 269 279 277 278 280 284 307 293 277 279 272 266 264 262 259 259 256 249
185 183 181 178 179 181 179 177 172 166 161 153 146 133 145 161 130 157 209 298 230 181 66 251 181 110 76 176 151 135 119 87 44 89 144 157 147 144 51 24 109 92 255 159 134 90 98 165 210 207 188 172 152 124 105 97 90 102 136 137 159 194 219 257 242 320 347 158 265 358 330 277 268 276 277 283 295 276 256 255 260 261 261 260 256 259 261 258
185 185 182 177 178 180 178 177 173 170 169 166 163 151 184 170 136 152 148 136 228 178 93 319 130 59 22 162 170 145 67 87 84 344 165 147 128 167 196 67 134 161 291 126 118 112 154 214 221 200 153 112 92 90 93 88 90 91 116 137 165 216 226 295 313 336 5 114 264 354 342 280 265 269 272 269 264 258 246 241 252 260 263 264 259 259 264 262
185 185 182 178 178 178 176 175 172 175 176 176 183 183 159 150 142 150 131 98 200 187 86 138 157 153 50 155 189 149 80 136 171 241 210 140 114 170 136 105 136 138 142 167 151 153 188 251 237 172 137 116 94 75 95 88 81 93 110 135 178 227 157 213 273 329 10 66 259 325 316 284 277 283 276 265 261 269 270 257 255 251 254 264 271 270 261 256
186 186 182 178 177 175 173 168 165 177 180 182 197 187 146 137 151 157 110 73 157 244 250 196 166 167 143 151 177 152 113 157 169 195 191 146 134 150 140 134 129 129 177 178 151 161 207 280 185 135 130 128 123 108 119 115 78 80 153 145 164 191 171 186 223 357 12 21 36 22 326 295 300 319 284 280 312 300 291 291 278 258 250 265 276 269 255 249
186 186 182 178 176 172 163 157 160 176 178 187 204 187 141 136 158 160 90 72 183 313 295 238 170 190 169 127 157 160 128 166 200 206 183 151 141 133 139 135 131 167 184 137 130 169 235 291 116 127 121 120 129 160 180 149 134 242 209 178 173 171 156 133 102 79 43 355 1 23 332 288 313 317 272 292 342 308 297 304 282 265 257 260 255 260 256 249
186 186 182 178 173 164 156 155 172 171 169 202 202 182 153 144 154 155 86 60 282 272 179 181 144 180 173 133 148 139 100 238 263 57 122 142 136 106 130 126 59 172 170 128 130 174 219 9 78 127 139 133 138 183 206 154 130 195 223 174 148 134 127 127 124 102 106 240 331 41 161 260 312 299 269 308 332 304 303 293 279 264 241 243 235 253 259 251
187 186 181 177 170 163 157 152 165 163 161 219 198 181 171 157 146 136 75 46 286 208 142 190 346 166 170 167 156 133 149 228 114 68 78 112 89 55 122 183 99 148 169 122 146 228 128 93 73 100 114 128 149 196 207 150 133 200 229 129 125 125 132 137 117 102 177 219 334 13 119 229 298 269 271 329 330 306 305 289 289 300 269 257 245 254 263 257
187 185 179 175 169 168 171 152 156 169 184 202 188 181 169 154 141 101 91 87 259 152 136 219 132 143 143 72 112 115 201 209 124 182 352 70 95 47 104 192 152 137 119 123 178 255 102 145 168 134 111 146 182 225 193 137 121 235 204 117 120 121 124 119 95 91 42 344 310 314 91 182 272 272 303 353 330 294 288 277 287 304 297 287 271 263 265 264
187 183 179 173 167 173 186 168 166 184 191 160 172 174 159 146 136 83 96 183 212 82 137 153 122 134 107 95 95 62 33 35 117 226 354 71 75 51 122 188 133 117 45 87 163 220 64 180 190 142 132 179 185 343 133 117 111 182 145 99 80 77 79 78 89 101 55 26 247 259 307 194 265 284 310 0 278 257 267 274 276 283 291 293 282 276 280 281
185 181 176 169 166 171 174 171 183 186 180 152 161 164 152 141 125 110 173 223 158 93 309 147 174 163 132 139 151 357 73 45 2 63 27 66 37 32 105 149 100 106 37 38 92 252 321 278 196 112 140 172 135 77 38 66 126 139 120 79 64 40 36 50 57 81 68 311 254 255 295 177 268 280 255 208 217 216 237 292 293 297 313 312 294 288 296 293
183 178 174 168 169 171 160 167 200 186 170 151 154 156 143 103 77 143 194 222 125 100 56 141 202 143 150 163 170 134 92 38 332 131 123 144 50 48 115 116 74 79 44 40 38 334 356 34 261 158 137 127 100 70 35 34 94 106 95 94 83 10 11 27 0 41 104 256 261 273 299 156 224 260 248 240 251 225 207 258 279 298 319 321 317 312 310 305
180 175 172 169 170 174 175 199 195 178 163 153 151 150 135 108 160 191 200 193 152 189 177 176 205 171 167 164 147 148 127 72 202 150 142 146 143 159 164 170 153 100 149 186 141 348 20 50 286 329 203 150 112 80 37 356 16 74 102 109 100 10 15 4 316 352 213 245 265 283 252 204 236 249 258 267 267 240 217 226 242 268 296 309 314 315 313 314
178 174 171 172 172 176 188 203 182 172 164 157 148 105 98 140 201 206 203 193 195 206 153 148 153 148 152 148 149 159 122 125 190 153 127 131 151 201 243 196 153 125 180 179 133 128 287 306 307 83 269 204 138 124 126 253 262 127 140 131 130 126 103 238 263 286 255 258 296 285 240 256 274 262 249 254 256 225 214 227 233 248 268 278 291 303 303 304
175 173 171 174 178 180 187 188 175 171 165 159 148 107 135 179 207 197 197 215 239 17 95 120 107 122 147 155 181 174 118 129 178 128 113 128 147 198 227 223 165 104 113 145 155 164 180 266 240 170 225 196 157 165 151 145 140 171 166 130 145 157 153 198 215 207 236 270 306 294 249 202 223 266 243 240 262 286 249 243 248 255 262 268 289 298 287 286
171 168 166 170 179 181 176 174 173 170 165 157 154 159 176 200 208 193 192 197 205 80 67 100 116 133 164 102 225 193 144 155 176 123 142 164 173 192 194 201 194 134 129 158 199 167 166 238 266 281 272 144 158 216 118 109 112 239 133 104 157 183 138 137 176 173 167 327 297 263 241 213 212 281 278 262 289 291 263 250 248 260 275 280 285 285 276 278
165 164 164 168 181 182 168 167 170 169 168 159 161 178 200 207 196 185 178 153 152 140 110 86 94 135 169 92 204 217 139 112 159 150 179 189 197 196 190 193 187 177 165 156 166 163 159 251 315 337 357 75 158 219 83 116 169 169 124 166 213 171 113 115 192 68 82 228 266 227 255 289 325 295 295 314 306 295 290 275 241 255 289 277 261 268 268 270
159 159 161 168 184 182 167 167 170 168 171 174 177 189 208 213 185 143 149 133 139 138 125 136 167 145 162 158 189 203 177 118 154 169 184 189 228 198 192 213 189 185 191 151 160 195 157 151 337 24 80 8 240 144 57 40 117 121 170 209 193 125 92 110 160 10 45 242 275 278 243 284 322 279 317 338 290 281 285 271 248 325 20 235 253 266 259 259
152 149 150 172 185 179 167 168 169 162 152 180 196 205 207 211 182 123 138 132 131 138 140 166 174 141 166 177 185 187 173 162 173 182 173 183 245 201 174 196 198 183 190 145 149 209 134 133 326 19 138 307 345 102 90 11 48 120 180 180 117 139 163 97 144 169 125 231 278 299 275 262 207 227 299 287 227 245 262 266 264 151 174 218 239 249 248 249
147 143 156 183 184 178 170 165 158 155 157 178 201 217 196 181 205 170 154 134 123 142 158 178 165 119 169 173 165 173 181 179 171 177 179 182 238 219 175 183 187 179 182 147 150 194 121 137 248 328 265 295 11 114 185 209 18 46 105 104 79 132 163 155 154 164 170 194 247 307 322 268 224 212 225 227 219 221 236 259 265 183 186 215 223 224 229 221
149 147 172 178 181 181 173 160 143 161 182 191 202 215 170 153 206 224 173 136 116 146 164 177 162 137 161 166 155 172 184 178 169 179 199 183 205 240 201 188 170 170 164 106 124 168 111 143 190 314 329 235 182 219 192 171 148 105 119 157 175 70 113 165 129 118 139 158 188 274 303 266 248 202 199 220 229 220 216 239 263 230 203 221 226 233 241 235
158 175 160 171 178 179 169 154 162 175 186 207 208 199 145 179 135 162 192 117 103 137 143 149 154 149 155 155 169 178 160 157 175 182 206 198 199 224 214 185 158 149 133 98 139 169 145 150 160 141 304 198 216 256 203 180 172 161 170 185 181 152 125 157 246 227 120 135 165 180 262 264 252 199 203 219 222 225 216 219 256 280 268 247 235 237 246 251
157 208 163 169 175 174 164 160 187 176 197 215 202 127 100 175 130 155 186 93 95 106 98 119 139 148 160 163 171 168 153 157 185 187 207 213 206 214 215 169 147 152 154 145 164 173 134 113 119 150 214 207 237 283 213 209 184 157 200 196 172 168 141 154 209 216 115 102 141 118 259 269 257 203 209 222 218 230 226 207 232 270 270 254 241 238 245 252
46 305 152 165 171 170 164 174 179 188 233 229 179 60 65 67 110 152 178 170 141 126 106 121 144 151 170 165 151 161 169 173 190 199 214 222 219 223 190 155 147 155 159 148 155 167 128 116 120 129 300 310 325 341 23 38 65 200 237 196 159 186 147 145 185 168 140 180 150 96 278 270 272 233 214 233 248 264 258 214 218 254 243 163 129 106 105 207
7 352 132 164 171 173 176 183 186 197 206 163 90 104 43 54 114 146 171 185 178 141 138 148 166 163 162 149 142 169 184 178 193 211 213 206 229 221 159 164 162 162 174 184 175 177 190 167 133 112 24 349 345 346 340 309 216 206 224 163 144 137 106 106 128 108 138 207 159 145 239 257 278 302 266 268 285 278 262 228 201 222 209 150 125 102 97 109
91 352 1 165 170 178 201 187 188 194 173 126 141 167 158 83 91 150 161 161 154 142 152 171 162 128 126 139 123 157 188 182 176 203 205 209 250 284 167 179 182 182 193 156 138 160 186 178 151 157 176 197 207 210 223 217 187 193 172 150 165 159 144 151 130 108 211 225 159 173 233 252 293 315 309 303 308 215 234 236 216 224 231 194 138 114 105 99
128 192 319 160 166 192 228 138 132 170 161 161 176 181 165 145 87 320 114 132 169 117 99 97 124 107 112 148 135 156 203 209 121 156 197 207 222 296 209 184 190 199 169 121 135 145 140 184 193 192 198 206 208 208 177 125 141 192 187 165 176 179 168 153 118 156 203 174 157 221 236 242 258 271 270 267 247 204 197 212 223 229 235 233 193 148 125 96
160 188 171 155 156 183 207 235 155 165 172 177 182 180 172 165 146 3 51 107 179 118 59 47 136 150 160 161 153 174 200 205 164 159 197 205 202 337 351 165 200 213 150 140 161 134 101 203 211 203 215 223 215 203 165 135 165 192 180 168 177 179 171 163 183 210 184 114 233 237 228 236 240 223 228 238 229 224 218 213 220 223 225 231 219 164 142 117
171 148 156 167 183 181 199 202 172 143 144 172 180 156 169 176 171 171 171 24 45 112 123 111 198 188 174 165 163 170 184 193 212 209 190 179 167 99 48 60 238 232 141 154 189 127 128 208 211 196 222 236 213 170 173 165 175 186 176 178 180 173 176 184 206 219 181 165 240 234 194 222 235 206 211 225 210 212 220 208 198 208 230 225 186 173 157 140
72 71 136 103 25 194 181 147 138 126 132 164 181 156 166 183 191 184 125 91 100 287 164 170 213 202 182 174 167 167 173 180 208 222 189 155 157 137 110 140 244 234 125 144 193 165 156 212 208 178 217 241 215 155 175 176 175 188 184 185 181 176 186 194 208 221 206 209 236 226 169 226 236 198 206 223 209 209 223 151 165 205 231 218 193 202 187 163
59 304 101 108 103 110 94 108 137 158 169 170 199 189 166 183 193 191 119 149 180 211 183 191 200 178 173 185 181 190 193 188 201 208 173 142 159 173 169 186 172 119 137 159 183 232 198 220 188 138 203 250 218 162 194 187 179 199 189 181 182 182 194 204 212 221 216 222 239 241 240 259 246 169 201 230 221 224 249 251 232 224 219 208 207 218 202 180
79 310 299 146 139 147 147 121 141 168 185 196 202 188 174 191 191 183 199 209 176 172 182 186 167 108 109 178 206 226 215 198 207 203 175 167 181 186 188 186 159 144 165 182 167 167 187 211 53 107 180 252 212 179 196 159 124 230 212 173 185 190 201 211 215 218 210 216 236 243 253 259 232 143 193 228 218 228 242 241 245 248 235 220 216 217 204 189
138 310 298 207 125 152 156 131 143 176 193 201 202 192 185 189 169 164 193 268 209 192 184 167 155 127 121 184 217 229 205 184 198 195 178 169 148 140 145 160 158 155 164 173 166 164 169 167 142 146 188 249 232 164 156 109 95 254 237 198 194 198 207 214 221 230 215 202 216 222 231 244 223 149 194 222 208 219 234 233 237 247 245 236 222 212 202 192